Flag for United Kingdom Weather past 2 weeks in Ely, England, United Kingdom

Now
67 °F

Passing clouds.


Feels Like: 67 °F
Forecast: 55 / 72 °F
Wind: 7 mph from Northwest

Location: Mildenhall Royal Air Force Base

Current Time: Jul 29, 2014 at 10:56:04 PM

Latest Report: Jul 29, 2014 at 9:58 PM


Visibility: N/A

Pressure: 29.93 "Hg

Humidity: 77%

Dew point: 59 °F

Location of ElyLocation

Historic Weather in Ely — Graph

°F

Ely temperature yesterday

Maximum temperature yesterday: 69 °F (at 11:58 AM)
Minimum temperature yesterday: 57 °F (at 7:58 AM)
Average temperature yesterday: 63 °F

Past Weeks' High & Low Weather Summary

 TemperatureHumidityPressure
High87 °F (Jul 18, 1:58 PM)100% (Jul 15, 2:58 AM)30.24 "Hg (Jul 15, 2:58 AM)
Low54 °F (Jul 29, 5:58 AM)42% (Jul 24, 3:58 PM)29.73 "Hg (Jul 19, 5:58 PM)
Average69 °F82%30.02 "Hg
* Reported Jul 14 8:58 PM — Jul 29 8:58 PM, Ely, Weather by CustomWeather, © 2014

Note: Actual official high and low records may vary slightly from our data, if they occured in-between our weather recording intervals... More about our weather records

Advertising

Ely weather history for previous 24 hours

 ConditionsComfort  
Time TempWeatherWind HumidityBarometerVisibility
8:58 PM
Jul 29
70 °FPassing clouds.10 mph70%29.92 "HgN/A
7:57 PM74 °FPartly sunny.13 mph61%29.90 "HgN/A
6:57 PM78 °FPassing clouds.10 mph48%29.89 "HgN/A
5:57 PM78 °FPassing clouds.7 mph48%29.89 "HgN/A
4:57 PM76 °FScattered clouds.5 mph54%29.90 "HgN/A
2:58 PM78 °FSunny.9 mph48%29.97 "HgN/A
1:58 PM76 °FSunny.9 mph49%29.99 "HgN/A
12:57 PM75 °FSunny.13 mph54%29.96 "HgN/A
11:57 AM72 °FSunny.9 mph61%29.96 "HgN/A
10:57 AM72 °FSunny.8 mph64%29.97 "HgN/A
9:57 AM69 °FPassing clouds.9 mph82%29.98 "HgN/A
8:57 AM68 °FMild.7 mph100%30.01 "HgN/A
7:58 AM63 °FSunny.8 mph100%30.02 "HgN/A
6:58 AM58 °FSunny.5 mph100%30.02 "HgN/A
5:58 AM54 °FClear.2 mph100%30.02 "HgN/A
4:58 AM55 °FClear.6 mph100%30.02 "HgN/A
3:58 AM57 °FClear.6 mph100%30.03 "HgN/A
2:58 AM58 °FClear.5 mph100%30.02 "HgN/A
1:58 AM60 °FOvercast.3 mph100%30.03 "HgN/A
12:58 AM61 °FOvercast.5 mph100%30.03 "HgN/A
11:58 PM
Jul 28
62 °FOvercast.6 mph100%30.03 "HgN/A
10:58 PM62 °FOvercast.8 mph100%30.02 "HgN/A
Weather by CustomWeather, © 2014

See weather overviewHow to use our weather pages